Lincoln, NE

1:54 AM CDT on October 18, 2017 (GMT -0500)
Lincoln Municipal

Weather History for KLNK - May, 2014

Change the Weather History Date:

Saturday, May 3, 2014

  Actual Average Record
Temperature  
Mean Temperature 60 °F 58 °F  
Max Temperature 76 °F 70 °F 91 °F (1949)
Min Temperature 43 °F 46 °F 25 °F (1976)
Degree Days  
Heating Degree Days 5 8  
Month to date heating degree days 29 25  
Since 1 July heating degree days 6377 5918  
Cooling Degree Days 0 1  
Month to date cooling degree days 0 3  
Year to date cooling degree days 15 17  
Growing Degree Days 9 (Base 50)    
Moisture  
Dew Point 40 °F    
Average Humidity 49    
Maximum Humidity 71    
Minimum Humidity 27    
Precipitation  
Precipitation 0.00 in 0.13 in 1.90 in (2001)
Month to date precipitation T 0.38  
Year to date precipitation 4.49 6.43  
Snow  
Snow 0.00 in 0.00 in - ()
Month to date snowfall 0.0 0.0  
Since 1 July snowfall 18.2 25.9  
Snow Depth 0.00 in    
Sea Level Pressure  
Sea Level Pressure 29.91 in    
Wind  
Wind Speed 4 mph (NNE)    
Max Wind Speed 14 mph    
Max Gust Speed 19 mph    
Visibility 10 miles    
Events      
T = Trace of Precipitation, MM = Missing Value Source: NWS Daily Summary

Daily Weather History Graph

Daily Weather History Graph

Search for Another Location

Airport or City:

Trip Planner

Search our weather history database for the weather conditions in past years. The results will help you decide how hot, cold, wet, or windy it might be!

Date:

Astronomy

May. 03, 2014 Rise Set
Actual Time 6:22 AM CDT 8:25 PM CDT
Civil Twilight 5:52 AM CDT 8:55 PM CDT
Nautical Twilight 5:16 AM CDT 9:32 PM CDT
Astronomical Twilight 4:36 AM CDT 10:12 PM CDT
Moon 9:53 AM CDT (5/3) No Moon Set
Length of Visible Light 15h 02m
Length of Day
14h 02m
Waxing Crescent, 20% of the Moon is Illuminated
May 3
Waxing Crescent
May 6
First Quarter
May 14
Full
May 21
Last Quarter
May 28
New

Hourly Weather History & Observations

Time (CDT) Temp. Dew Point Humidity Pressure Visibility Wind Dir Wind Speed Gust Speed Precip Events Conditions
12:54 AM 57.9 °F 39.9 °F 51% 29.87 in 10.0 mi WNW 3.5 mph - N/A   Scattered Clouds
1:54 AM 57.0 °F 39.9 °F 53% 29.88 in 10.0 mi WNW 5.8 mph - N/A   Clear
2:54 AM 55.0 °F 39.9 °F 57% 29.88 in 10.0 mi NNW 8.1 mph - N/A   Clear
3:54 AM 54.0 °F 39.0 °F 57% 29.90 in 10.0 mi NNW 6.9 mph - N/A   Clear
4:54 AM 51.8 °F 37.4 °F 58% 29.92 in 10.0 mi NNW 8.1 mph - N/A   Clear
5:54 AM 48.0 °F 36.0 °F 63% 29.92 in 10.0 mi Calm Calm - N/A   Clear
6:54 AM 46.9 °F 37.0 °F 68% 29.94 in 10.0 mi Calm Calm - N/A   Clear
7:54 AM 52.0 °F 37.9 °F 59% 29.94 in 10.0 mi Calm Calm - N/A   Clear
8:54 AM 55.9 °F 39.9 °F 55% 29.95 in 10.0 mi North 4.6 mph - N/A   Clear
9:54 AM 60.1 °F 41.0 °F 49% 29.95 in 10.0 mi Calm Calm - N/A   Clear
10:54 AM 63.0 °F 39.0 °F 41% 29.94 in 10.0 mi Calm Calm - N/A   Clear
11:54 AM 66.9 °F 37.0 °F 33% 29.94 in 10.0 mi Variable 3.5 mph - N/A   Clear
12:54 PM 69.1 °F 37.9 °F 32% 29.93 in 10.0 mi Variable 3.5 mph - N/A   Clear
1:54 PM 71.1 °F 37.0 °F 29% 29.91 in 10.0 mi Calm Calm - N/A   Clear
2:54 PM 73.4 °F 39.2 °F 29% 29.92 in 10.0 mi Calm Calm - N/A   Clear
3:54 PM 73.0 °F 39.9 °F 30% 29.89 in 10.0 mi South 6.9 mph - N/A   Clear
4:54 PM 75.0 °F 39.9 °F 28% 29.88 in 10.0 mi NE 4.6 mph - N/A   Clear
5:54 PM 75.9 °F 41.0 °F 29% 29.88 in 10.0 mi NNE 4.6 mph - N/A   Clear
6:54 PM 73.9 °F 43.0 °F 33% 29.89 in 10.0 mi Calm Calm - N/A   Clear
7:54 PM 70.0 °F 43.0 °F 38% 29.89 in 10.0 mi NNE 4.6 mph - N/A   Clear
8:54 PM 63.0 °F 42.1 °F 46% 29.89 in 10.0 mi ENE 6.9 mph - N/A   Clear
9:54 PM 61.0 °F 42.1 °F 50% 29.91 in 10.0 mi ENE 8.1 mph - N/A   Clear
10:54 PM 59.0 °F 42.1 °F 53% 29.91 in 10.0 mi ENE 9.2 mph - N/A   Clear
11:54 PM 61.0 °F 41.0 °F 48% 29.88 in 10.0 mi East 12.7 mph - N/A   Clear